Location: General Nathan Twining Observatory
(34.5931°N, 106.8201°W)
Time: 07:28:56
(UTC-07:00)

Daily predictions for brighter satellites

Satellite Brightness Start Highest point End
(mag) Time Altitude Azimuth Time Altitude Azimuth Time Altitude Azimuth
Cosmos 1503 Rocket 4.2 17:38:22 10° N 17:43:34 51° ENE 17:48:44 10° SE
Cosmos 1842 Rocket 3.5 17:40:24 10° N 17:44:51 74° E 17:49:13 10° SSE
Meteor 1-21 Rocket 4.5 17:40:13 10° S 17:45:54 56° E 17:51:40 10° NNE
Cosmos 1908 3.2 17:42:12 10° N 17:46:04 63° E 17:49:52 10° SSE
Cosmos 1076 Rocket 4.2 17:47:24 10° SSE 17:51:19 34° E 17:55:17 10° NNE
Meteor 1-28 Rocket 4.0 17:47:59 10° N 17:51:43 54° WNW 17:55:25 10° SSW
Cosmos 1400 Rocket 3.1 17:50:24 10° SSE 17:54:14 46° E 17:58:08 10° NNE
KORONAS-FOTON 3.7 17:50:57 10° S 17:54:45 86° E 17:58:34 10° N
Cosmos 1992 Rocket 4.0 17:49:57 10° SSW 17:55:08 89° ESE 18:00:22 10° NNE
Cosmos 2341 Rocket 4.1 17:49:15 10° N 17:55:28 62° E 18:01:40 10° SSE
USA 116 4.1 17:51:17 10° N 17:55:31 86° WNW 18:00:18 10° SSW
Cosmos 2084 3.4 17:52:59 10° NNW 17:56:42 48° NE 18:00:29 10° SE
ATLAS 3B CENTAUR R/B 3.1 17:55:51 10° WSW 17:57:41 14° SSW 17:59:05 10° S
FENGYUN 3A 4.1 17:53:32 10° SE 17:58:25 37° ENE 18:03:18 10° N
Okean 3 Rocket 3.9 17:55:03 10° SSE 17:59:23 46° E 18:03:44 10° NNE
Cosmos 1766 Rocket 4.5 18:01:15 10° SSE 18:04:51 26° E 18:08:27 10° NNE
OAO 3 Rocket 3.2 18:01:19 10° WSW 18:06:00 80° SSE 18:10:16 13° E
MONITOR-E 4.4 18:08:20 10° SSE 18:11:14 42° ENE 18:14:09 10° N
Cosmos 1943 3.8 18:10:10 10° SW 18:15:42 59° WNW 18:21:16 10° NNE
SKYMED 2 3.6 18:12:03 10° N 18:16:24 85° WNW 18:20:44 10° SSW
Cosmos 2181 Rocket 4.1 18:11:07 10° S 18:17:33 87° W 18:24:01 10° N
Cosmos 1726 2.0 18:14:29 10° N 18:18:09 88° E 18:21:48 10° S
Lacrosse 5 rocket 4.0 18:15:15 10° WNW 18:19:00 26° WSW 18:22:49 10° S
Cosmos 968 Rocket 3.7 18:14:40 10° N 18:19:37 45° ENE 18:24:30 10° SE
METEOR-M 4.3 18:16:06 10° S 18:21:26 78° WSW 18:26:49 10° NNW
CZ-4 R/B 2.7 18:18:05 10° S 18:22:06 45° W 18:26:10 10° NNW
YAOGAN 1 2.9 18:18:12 10° S 18:22:30 71° WSW 18:26:50 10° NNW
ALOS 2.2 18:18:09 10° SSE 18:22:46 68° ENE 18:27:25 10° N
EO 1 Del DPAF 3.1 18:20:52 10° NNE 18:24:42 73° ESE 18:28:30 10° S
DMSP B5D1-3 4.4 18:22:53 10° NNE 18:27:58 69° ESE 18:33:01 10° S
ATLAS 2AS CENTAUR R/B 2.9 18:20:45 10° NNW 18:28:39 81° ENE 18:35:49 10° SSE
Cosmos 1703 4.4 18:25:39 10° SE 18:28:44 22° E 18:28:51 22° E
SL-14 R/B 4.0 18:37:59 10° SSW 18:41:55 56° W 18:45:50 10° N
Thor Agena Rocket 4.0 18:42:47 20° NE 18:45:59 40° E 18:50:51 10° SSE
Cosmos 2218 Rocket 3.9 18:40:31 10° N 18:46:42 85° E 18:52:50 10° S
Cosmos 2263 4.3 18:41:32 10° NNW 18:47:20 82° WSW 18:53:01 10° SSE
SL-8 Rocket 4.1 18:41:24 10° N 18:47:34 78° W 18:53:47 10° S
NOSS 3-4 (A) 4.4 18:44:27 10° NNW 18:50:52 35° NE 18:53:32 28° E
NOSS 3-4 (C) 4.4 18:44:34 10° NNW 18:50:58 35° NE 18:53:33 28° E
Cosmos 2221 4.4 18:53:08 10° NNW 18:57:03 33° W 19:00:58 10° SSW
Cosmos 1315 Rocket 3.4 18:53:52 10° SSW 18:57:44 55° W 19:01:36 10° N
Cosmos 1626 2.0 18:54:27 10° S 18:58:08 86° W 19:00:04 27° N
Cosmos 1300 3.6 18:54:35 10° NNW 18:58:17 48° W 19:01:58 10° SSW
SPOT 3 Rocket 3.9 18:53:52 10° S 18:58:58 67° WSW 19:04:06 10° NNW
Cosmos 1408 Rocket 3.6 18:55:13 10° S 18:59:31 76° W 19:03:49 10° N
Cosmos 2369 Rocket 3.4 18:54:17 10° NW 18:59:37 43° WSW 19:04:57 10° S
SL-08 R/B 4.4 18:56:32 10° N 19:02:45 88° W 19:08:51 10° S
TSX-5 4.1 19:01:20 10° SW 19:04:22 47° WNW 19:05:05 38° NNW
USA 81 4.0 19:05:44 10° SSE 19:10:53 58° E 19:12:12 45° NE
ERS-2 3.2 19:08:43 10° S 19:12:13 44° W 19:15:46 10° NNW
GEOS 3 Rocket 3.6 19:11:02 41° ESE 19:12:48 65° NE 19:18:06 10° NNW
Cosmos 44 3.3 19:09:56 10° SW 19:14:10 62° WNW 19:15:22 43° N
Meteor 1-11 4.3 19:10:38 10° SSW 19:16:11 76° W 19:21:49 10° N
Meteor 1-27 4.1 19:10:44 10° N 19:16:27 71° E 19:22:12 10° SSE
Cosmos 1656 Rocket 3.4 19:15:41 10° NNW 19:21:10 72° ENE 19:22:36 49° SE
Cosmos 1943 Rocket 3.4 19:16:51 10° NW 19:22:04 42° WSW 19:27:13 10° S
Cosmos 1743 Rocket 3.5 19:19:39 10° S 19:23:46 78° SSW 19:23:46 78° SSW
Cosmos 2151 3.7 19:24:48 10° S 19:27:49 46° SSW 19:27:49 46° SSW
Cosmos 1777 Rocket 3.8 19:23:58 10° NNW 19:29:14 84° ENE 19:29:33 78° SE
H-2A R/B 4.2 19:27:03 10° SSW 19:30:32 37° W 19:34:06 10° NNW
ASTRO E2 4.2 19:26:58 10° SW 19:29:34 31° SSW 19:29:34 31° SSW
Cosmos 44 Rocket 3.7 19:26:41 10° SW 19:31:14 54° WNW 19:31:54 49° NNW
Cosmos 2058 3.6 19:27:24 10° SSW 19:30:31 48° SSW 19:30:31 48° SSW
Meteor 2-15 4.3 19:28:16 10° S 19:34:22 78° E 19:35:32 60° NNE
COSMOS 2406 3.1 19:29:42 10° SSW 19:35:26 89° ESE 19:35:58 75° NNE
Nadezhda 3 Rocket 4.2 19:33:20 10° SSW 19:39:35 71° W 19:45:57 10° N
Cosmos 2098 Rocket 4.1 19:36:04 10° NNW 19:41:10 65° W 19:47:34 10° S
OAO 3 Rocket 4.1 19:44:49 10° W 19:48:05 45° W 19:48:05 45° W
Centaur D-1A AC-32 4.5 20:00:12 10° SSW 20:01:47 21° SSW 20:01:47 21° SSW
